Location: Elma
(49.8670°N, 95.9170°W)
Time: 17:54:36
(UTC-05:00)

ISS - Pass Details

Date: 26 March 2019
Orbit: 408 x 410 km, 51.6° (Epoch: 19 April)

Event Time Altitude Azimuth Distance (km) Brightness Sun altitude
Rises 21:07:40 0° 256° (WSW) 2,334 1.0 -13.6°
Reaches altitude 10° 21:09:45 10° 257° (WSW) 1,474 -0.1 -13.9°
Maximum altitude 21:13:04 81° 346° (NNW) 419 -3.8 -14.4°
Enters shadow 21:14:52 25° 71° (ENE) 879 -2.6 -14.7°
